Location: *
(47.7167°N, 1.7333°W)
Time: 17:21:56
(UTC+00:00)

Cosmos 1980 Rocket - Pass Details

Date: 09 April 2020
Orbit: 828 x 850 km, 71.0° (Epoch: 28 May)

Event Time Altitude Azimuth Distance (km) Brightness Sun altitude
Rises 19:52:00 0° 338° (NNW) 3,387 6.1 -10.9°
Reaches altitude 10° 19:55:54 10° 5° (N) 2,453 4.9 -11.5°
Maximum altitude 19:58:34 13° 33° (NNE) 2,218 4.3 -11.9°
Drops below altitude 10° 20:01:15 10° 62° (ENE) 2,455 4.3 -12.3°
Enters shadow 20:02:35 - 73° (ENE) 2,719 4.4 -12.5°
